| time (UTC) | temp C | wind direction | speed KPH | gust KPH | rain 1hr cm | rain 24hr cm | rain mn cm | humidity % | barometer mb |
| 20260831034015 | 19 | 67 | 8.0 | 16.1 | 0.00 | 0.00 | 0.00 | 80 | 1018.5 |
| 20260831033516 | 19 | 32 | 3.2 | 11.3 | 0.00 | 0.00 | 0.00 | 81 | 1018.4 |
| 20260831033027 | 18 | 9 | 1.6 | 8.0 | 0.00 | 0.00 | 0.00 | 81 | 1018.5 |
| 20260831032509 | 18 | 314 | 3.2 | 8.0 | 0.00 | 0.00 | 0.00 | 81 | 1018.6 |
| 20260831032016 | 18 | 341 | 3.2 | 6.4 | 0.00 | 0.00 | 0.00 | 81 | 1018.5 |
| 20260831031519 | 18 | 51 | 1.6 | 4.8 | 0.00 | 0.00 | 0.00 | 81 | 1018.4 |
| 20260831031013 | 19 | 146 | 1.6 | 4.8 | 0.00 | 0.00 | 0.00 | 80 | 1018.3 |
| 20260831030509 | 19 | 9 | 0.0 | 4.8 | 0.00 | 0.00 | 0.00 | 79 | 1018.3 |
| 20260831030029 | 20 | 298 | 1.6 | 6.4 | 0.00 | 0.00 | 0.00 | 78 | 1018.3 |
| 20260831025513 | 20 | 338 | 3.2 | 11.3 | 0.00 | 0.00 | 0.00 | 77 | 1018.4 |
| 20260831024530 | 20 | 338 | 3.2 | 11.3 | 0.00 | 0.00 | 0.00 | 77 | 1018.4 |
| 20260831024017 | 20 | 316 | 3.2 | 14.5 | 0.00 | 0.00 | 0.00 | 76 | 1018.4 |
| 20260831023514 | 20 | 48 | 3.2 | 14.5 | 0.00 | 0.00 | 0.00 | 76 | 1018.4 |
| 20260831023037 | 20 | 9 | 3.2 | 11.3 | 0.00 | 0.00 | 0.00 | 76 | 1018.2 |
| 20260831022516 | 20 | 34 | 1.6 | 11.3 | 0.00 | 0.00 | 0.00 | 76 | 1018.2 |
| 20260831022019 | 21 | 247 | 1.6 | 9.7 | 0.00 | 0.00 | 0.00 | 75 | 1018.2 |
| 20260831021532 | 21 | 325 | 1.6 | 12.9 | 0.00 | 0.00 | 0.00 | 75 | 1018.1 |
| 20260831021009 | 21 | 342 | 3.2 | 16.1 | 0.00 | 0.00 | 0.00 | 75 | 1018.1 |
| 20260831020513 | 21 | 9 | 1.6 | 16.1 | 0.00 | 0.00 | 0.00 | 75 | 1018.1 |
| 20260831020046 | 20 | 238 | 4.8 | 11.3 | 0.00 | 0.00 | 0.00 | 76 | 1018.2 |
| 20260831015513 | 20 | 341 | 3.2 | 8.0 | 0.00 | 0.00 | 0.00 | 77 | 1018.3 |
| 20260831015014 | 20 | 316 | 3.2 | 8.0 | 0.00 | 0.00 | 0.00 | 76 | 1018.3 |
| 20260831014530 | 20 | 67 | 0.0 | 9.7 | 0.00 | 0.00 | 0.00 | 76 | 1018.3 |
| 20260831014016 | 20 | 67 | 4.8 | 9.7 | 0.00 | 0.00 | 0.00 | 76 | 1018.4 |
| 20260831013514 | 21 | 67 | 1.6 | 6.4 | 0.00 | 0.00 | 0.00 | 74 | 1018.2 |
| 20260831013035 | 21 | 205 | 1.6 | 4.8 | 0.00 | 0.00 | 0.00 | 74 | 1018.1 |
| 20260831012519 | 21 | 217 | 1.6 | 6.4 | 0.00 | 0.00 | 0.00 | 74 | 1018.2 |
| 20260831012019 | 21 | 51 | 3.2 | 11.3 | 0.00 | 0.00 | 0.00 | 73 | 1018.1 |
| 20260831011534 | 21 | 93 | 1.6 | 11.3 | 0.00 | 0.00 | 0.00 | 73 | 1018.0 |
| 20260831011018 | 21 | 200 | 8.0 | 16.1 | 0.00 | 0.00 | 0.00 | 72 | 1018.0 |
| 20260831010514 | 21 | 191 | 8.0 | 16.1 | 0.00 | 0.00 | 0.00 | 72 | 1018.0 |
| 20260831010021 | 21 | 168 | 4.8 | 12.9 | 0.00 | 0.00 | 0.00 | 70 | 1017.9 |
| 20260831005511 | 21 | 221 | 8.0 | 14.5 | 0.00 | 0.00 | 0.00 | 70 | 1017.9 |
| 20260831005012 | 21 | 247 | 4.8 | 19.3 | 0.00 | 0.00 | 0.00 | 71 | 1018.0 |
| 20260831004544 | 21 | 26 | 4.8 | 19.3 | 0.00 | 0.00 | 0.00 | 70 | 1017.9 |
| 20260831004013 | 21 | 336 | 6.4 | 19.3 | 0.00 | 0.00 | 0.00 | 71 | 1017.8 |
| 20260831003519 | 21 | 132 | 1.6 | 16.1 | 0.00 | 0.00 | 0.00 | 70 | 1017.8 |
| 20260831003029 | 22 | 304 | 6.4 | 16.1 | 0.00 | 0.00 | 0.00 | 69 | 1017.7 |
| 20260831002514 | 22 | 42 | 6.4 | 16.1 | 0.00 | 0.00 | 0.00 | 68 | 1017.6 |
| 20260831002018 | 22 | 342 | 3.2 | 22.5 | 0.00 | 0.00 | 0.00 | 68 | 1017.4 |
| 20260831001535 | 22 | 212 | 1.6 | 22.5 | 0.00 | 0.00 | 0.00 | 67 | 1017.3 |
| 20260831001016 | 22 | 9 | 4.8 | 19.3 | 0.00 | 0.00 | 0.00 | 68 | 1017.4 |
| 20260831000517 | 22 | 304 | 4.8 | 19.3 | 0.00 | 0.00 | 0.00 | 68 | 1017.3 |
| 20260831000019 | 22 | 38 | 4.8 | 11.3 | 0.00 | 0.00 | 0.00 | 69 | 1017.2 |
| 20260830235510 | 22 | 309 | 1.6 | 19.3 | 0.00 | 0.00 | 0.00 | 69 | 1017.0 |
| 20260830235008 | 23 | 229 | 3.2 | 19.3 | 0.00 | 0.00 | 0.00 | 68 | 1016.9 |
| 20260830234535 | 23 | 241 | 8.0 | 20.9 | 0.00 | 0.00 | 0.00 | 67 | 1016.8 |
| 20260830234015 | 23 | 173 | 12.9 | 20.9 | 0.00 | 0.00 | 0.00 | 67 | 1016.7 |
| 20260830233515 | 23 | 221 | 1.6 | 24.1 | 0.00 | 0.00 | 0.00 | 67 | 1016.8 |
| 20260830233029 | 23 | 221 | 8.0 | 24.1 | 0.00 | 0.00 | 0.00 | 68 | 1016.8 |
| 20260830232504 | 23 | 238 | 6.4 | 12.9 | 0.00 | 0.00 | 0.00 | 68 | 1016.8 |
| 20260830232004 | 23 | 229 | 1.6 | 16.1 | 0.00 | 0.00 | 0.00 | 68 | 1016.8 |
| 20260830231516 | 23 | 205 | 3.2 | 16.1 | 0.00 | 0.00 | 0.00 | 68 | 1016.8 |
| 20260830231017 | 23 | 232 | 4.8 | 16.1 | 0.00 | 0.00 | 0.00 | 69 | 1016.7 |
| 20260830230506 | 23 | 238 | 3.2 | 11.3 | 0.00 | 0.00 | 0.00 | 68 | 1016.7 |
| 20260830230033 | 23 | 309 | 3.2 | 14.5 | 0.00 | 0.00 | 0.00 | 68 | 1016.8 |
| 20260830225509 | 23 | 229 | 6.4 | 20.9 | 0.00 | 0.00 | 0.00 | 67 | 1016.8 |
| 20260830225008 | 23 | 259 | 9.7 | 20.9 | 0.00 | 0.00 | 0.00 | 67 | 1016.8 |
| 20260830224520 | 23 | 212 | 8.0 | 19.3 | 0.00 | 0.00 | 0.00 | 68 | 1016.8 |
| 20260830224012 | 23 | 241 | 6.4 | 16.1 | 0.00 | 0.00 | 0.00 | 69 | 1016.8 |
| 20260830223510 | 23 | 219 | 8.0 | 14.5 | 0.00 | 0.00 | 0.00 | 68 | 1016.6 |
| 20260830223028 | 23 | 232 | 6.4 | 17.7 | 0.00 | 0.00 | 0.00 | 69 | 1016.8 |
| 20260830222515 | 23 | 218 | 8.0 | 17.7 | 0.00 | 0.00 | 0.00 | 68 | 1016.8 |
| 20260830222013 | 23 | 218 | 9.7 | 16.1 | 0.00 | 0.00 | 0.00 | 68 | 1016.7 |
| 20260830221531 | 23 | 224 | 6.4 | 16.1 | 0.00 | 0.00 | 0.00 | 70 | 1016.7 |
| 20260830221017 | 23 | 183 | 9.7 | 16.1 | 0.00 | 0.00 | 0.00 | 68 | 1016.8 |
| 20260830220519 | 24 | 217 | 4.8 | 14.5 | 0.00 | 0.00 | 0.00 | 69 | 1016.8 |
| 20260830220011 | 24 | 198 | 8.0 | 11.3 | 0.00 | 0.00 | 0.00 | 68 | 1016.8 |
| 20260830215518 | 24 | 188 | 6.4 | 9.7 | 0.00 | 0.00 | 0.00 | 69 | 1016.7 |
| 20260830215007 | 24 | 221 | 6.4 | 9.7 | 0.00 | 0.00 | 0.00 | 66 | 1016.8 |
| 20260830214516 | 24 | 198 | 4.8 | 9.7 | 0.00 | 0.00 | 0.00 | 65 | 1016.7 |
| 20260830214008 | 25 | 205 | 3.2 | 12.9 | 0.00 | 0.00 | 0.00 | 64 | 1016.7 |
| 20260830213508 | 25 | 198 | 4.8 | 17.7 | 0.00 | 0.00 | 0.00 | 64 | 1016.8 |
| 20260830213037 | 25 | 214 | 9.7 | 24.1 | 0.00 | 0.00 | 0.00 | 62 | 1016.8 |
| 20260830212512 | 25 | 227 | 11.3 | 24.1 | 0.00 | 0.00 | 0.00 | 63 | 1016.8 |
| 20260830212012 | 25 | 201 | 11.3 | 19.3 | 0.00 | 0.00 | 0.00 | 62 | 1016.8 |
| 20260830211548 | 25 | 200 | 9.7 | 19.3 | 0.00 | 0.00 | 0.00 | 61 | 1016.8 |
| 20260830211016 | 25 | 242 | 8.0 | 17.7 | 0.00 | 0.00 | 0.00 | 61 | 1016.9 |
| 20260830210519 | 25 | 218 | 6.4 | 27.4 | 0.00 | 0.00 | 0.00 | 61 | 1016.8 |
| 20260830210025 | 26 | 236 | 9.7 | 27.4 | 0.00 | 0.00 | 0.00 | 60 | 1016.8 |
| 20260830205504 | 26 | 221 | 14.5 | 30.6 | 0.00 | 0.00 | 0.00 | 60 | 1016.9 |
| 20260830205007 | 26 | 219 | 17.7 | 32.2 | 0.00 | 0.00 | 0.00 | 59 | 1016.8 |
| 20260830204515 | 26 | 224 | 14.5 | 32.2 | 0.00 | 0.00 | 0.00 | 60 | 1016.9 |
| 20260830204006 | 26 | 225 | 12.9 | 32.2 | 0.00 | 0.00 | 0.00 | 60 | 1016.9 |
| 20260830203506 | 26 | 178 | 14.5 | 32.2 | 0.00 | 0.00 | 0.00 | 63 | 1016.9 |
| 20260830203030 | 25 | 188 | 11.3 | 30.6 | 0.00 | 0.00 | 0.00 | 63 | 1016.9 |
| 20260830202513 | 26 | 298 | 9.7 | 29.0 | 0.00 | 0.00 | 0.00 | 62 | 1016.8 |
| 20260830202023 | 26 | 210 | 16.1 | 30.6 | 0.00 | 0.00 | 0.00 | 60 | 1016.9 |
| 20260830201527 | 26 | 193 | 12.9 | 30.6 | 0.00 | 0.00 | 0.00 | 61 | 1016.9 |
| 20260830201015 | 26 | 214 | 9.7 | 25.7 | 0.00 | 0.00 | 0.00 | 61 | 1017.0 |
| 20260830200503 | 25 | 184 | 14.5 | 29.0 | 0.00 | 0.00 | 0.00 | 64 | 1016.9 |
| 20260830200009 | 25 | 231 | 12.9 | 29.0 | 0.00 | 0.00 | 0.00 | 61 | 1017.0 |
| 20260830195504 | 26 | 221 | 9.7 | 24.1 | 0.00 | 0.00 | 0.00 | 63 | 1017.0 |
| 20260830195017 | 25 | 232 | 14.5 | 25.7 | 0.00 | 0.00 | 0.00 | 58 | 1017.1 |
| 20260830194514 | 25 | 219 | 14.5 | 25.7 | 0.00 | 0.00 | 0.00 | 60 | 1017.1 |
| 20260830194004 | 25 | 200 | 16.1 | 25.7 | 0.00 | 0.00 | 0.00 | 59 | 1017.1 |
| 20260830193509 | 26 | 224 | 16.1 | 27.4 | 0.00 | 0.00 | 0.00 | 57 | 1017.2 |
| 20260830193020 | 26 | 208 | 14.5 | 27.4 | 0.00 | 0.00 | 0.00 | 57 | 1017.3 |
| 20260830192508 | 26 | 203 | 14.5 | 24.1 | 0.00 | 0.00 | 0.00 | 57 | 1017.3 |
| 20260830192021 | 26 | 225 | 14.5 | 24.1 | 0.00 | 0.00 | 0.00 | 57 | 1017.2 |
| 20260830191537 | 27 | 178 | 11.3 | 24.1 | 0.00 | 0.00 | 0.00 | 57 | 1017.3 |
| 20260830191014 | 26 | 214 | 9.7 | 24.1 | 0.00 | 0.00 | 0.00 | 57 | 1017.3 |
| 20260830190515 | 26 | 238 | 12.9 | 24.1 | 0.00 | 0.00 | 0.00 | 57 | 1017.3 |
| 20260830190031 | 26 | 195 | 11.3 | 19.3 | 0.00 | 0.00 | 0.00 | 58 | 1017.5 |
| 20260830185513 | 26 | 209 | 8.0 | 19.3 | 0.00 | 0.00 | 0.00 | 61 | 1017.6 |
| 20260830185017 | 26 | 215 | 14.5 | 19.3 | 0.00 | 0.00 | 0.00 | 59 | 1017.7 |
| 20260830184511 | 26 | 243 | 8.0 | 14.5 | 0.00 | 0.00 | 0.00 | 63 | 1017.7 |
| 20260830184017 | 26 | 221 | 6.4 | 14.5 | 0.00 | 0.00 | 0.00 | 62 | 1017.7 |
| 20260830183504 | 25 | 162 | 8.0 | 14.5 | 0.00 | 0.00 | 0.00 | 64 | 1017.8 |
| 20260830183014 | 25 | 219 | 6.4 | 19.3 | 0.00 | 0.00 | 0.00 | 64 | 1017.9 |
| 20260830182522 | 25 | 178 | 8.0 | 19.3 | 0.00 | 0.00 | 0.00 | 63 | 1017.9 |
| 20260830182014 | 25 | 194 | 9.7 | 16.1 | 0.00 | 0.00 | 0.00 | 63 | 1017.9 |
| 20260830181534 | 26 | 171 | 8.0 | 16.1 | 0.00 | 0.00 | 0.00 | 61 | 1018.0 |
| 20260830181016 | 25 | 221 | 6.4 | 14.5 | 0.00 | 0.00 | 0.00 | 63 | 1018.0 |
| 20260830180515 | 25 | 219 | 8.0 | 14.5 | 0.00 | 0.00 | 0.00 | 61 | 1018.1 |
| 20260830180245 | 25 | 195 | 4.8 | 12.9 | 0.00 | 0.00 | 0.00 | 65 | 1018.1 |
| 20260830180241 | 24 | 249 | 3.2 | 9.7 | 0.00 | 0.00 | 0.00 | 67 | 1018.2 |
| 20260830180236 | 25 | 215 | 1.6 | 11.3 | 0.00 | 0.00 | 0.00 | 62 | 1018.2 |
| 20260830174022 | 25 | 126 | 1.6 | 9.7 | 0.00 | 0.00 | 0.00 | 64 | 1018.4 |
| 20260830173517 | 25 | 196 | 1.6 | 12.9 | 0.00 | 0.00 | 0.00 | 64 | 1018.4 |
| 20260830173012 | 25 | 209 | 8.0 | 14.5 | 0.00 | 0.00 | 0.00 | 60 | 1018.5 |
| 20260830172508 | 25 | 225 | 6.4 | 14.5 | 0.00 | 0.00 | 0.00 | 63 | 1018.6 |
| 20260830172019 | 25 | 153 | 4.8 | 11.3 | 0.00 | 0.00 | 0.00 | 63 | 1018.5 |
| 20260830171518 | 24 | 205 | 3.2 | 12.9 | 0.00 | 0.00 | 0.00 | 65 | 1018.7 |
| 20260830171021 | 24 | 98 | 1.6 | 12.9 | 0.00 | 0.00 | 0.00 | 66 | 1018.6 |
| 20260830170512 | 24 | 165 | 1.6 | 6.4 | 0.00 | 0.00 | 0.00 | 66 | 1018.6 |
| 20260830170024 | 24 | 67 | 1.6 | 6.4 | 0.00 | 0.00 | 0.00 | 66 | 1018.8 |
| 20260830165510 | 23 | 291 | 0.0 | 9.7 | 0.00 | 0.00 | 0.00 | 65 | 1019.1 |
| 20260830165014 | 23 | 129 | 3.2 | 9.7 | 0.00 | 0.00 | 0.00 | 67 | 1019.2 |
| 20260830164534 | 23 | 132 | 3.2 | 6.4 | 0.00 | 0.00 | 0.00 | 67 | 1019.3 |
| 20260830164018 | 23 | 46 | 1.6 | 11.3 | 0.00 | 0.00 | 0.00 | 67 | 1019.4 |
| 20260830163517 | 23 | 221 | 1.6 | 14.5 | 0.00 | 0.00 | 0.00 | 66 | 1019.5 |
| 20260830163033 | 23 | 202 | 8.0 | 14.5 | 0.00 | 0.00 | 0.00 | 64 | 1019.4 |
| 20260830162517 | 23 | 178 | 4.8 | 12.9 | 0.00 | 0.00 | 0.00 | 67 | 1019.3 |
| 20260830162016 | 23 | 171 | 6.4 | 12.9 | 0.00 | 0.00 | 0.00 | 67 | 1019.5 |
| 20260830161549 | 23 | 137 | 3.2 | 9.7 | 0.00 | 0.00 | 0.00 | 69 | 1019.5 |
| 20260830161021 | 23 | 309 | 1.6 | 9.7 | 0.00 | 0.00 | 0.00 | 71 | 1019.5 |
| 20260830160510 | 23 | 93 | 1.6 | 11.3 | 0.00 | 0.00 | 0.00 | 70 | 1019.6 |
| 20260830160019 | 23 | 67 | 3.2 | 11.3 | 0.00 | 0.00 | 0.00 | 75 | 1019.7 |
| 20260830155510 | 22 | 156 | 3.2 | 9.7 | 0.00 | 0.00 | 0.00 | 73 | 1019.8 |
| 20260830155012 | 22 | 185 | 3.2 | 8.0 | 0.00 | 0.00 | 0.00 | 74 | 1019.8 |
| 20260830154535 | 22 | 221 | 3.2 | 12.9 | 0.00 | 0.00 | 0.00 | 74 | 1019.9 |
| 20260830154012 | 22 | 205 | 6.4 | 12.9 | 0.00 | 0.00 | 0.00 | 70 | 1019.9 |
| 20260830153512 | 22 | 225 | 6.4 | 16.1 | 0.00 | 0.00 | 0.00 | 72 | 1020.0 |
| 20260830153044 | 22 | 173 | 3.2 | 16.1 | 0.00 | 0.00 | 0.00 | 72 | 1020.1 |
| 20260830152516 | 22 | 205 | 6.4 | 12.9 | 0.00 | 0.00 | 0.00 | 72 | 1020.1 |
| 20260830152017 | 22 | 255 | 1.6 | 11.3 | 0.00 | 0.00 | 0.00 | 74 | 1020.1 |
| 20260830151531 | 21 | 205 | 3.2 | 12.9 | 0.00 | 0.00 | 0.00 | 75 | 1020.1 |
| 20260830151017 | 21 | 225 | 6.4 | 12.9 | 0.00 | 0.00 | 0.00 | 74 | 1020.2 |
| 20260830150521 | 21 | 218 | 4.8 | 9.7 | 0.00 | 0.00 | 0.00 | 74 | 1020.2 |
| 20260830150035 | 21 | 198 | 3.2 | 11.3 | 0.00 | 0.00 | 0.00 | 76 | 1020.3 |
| 20260830145509 | 20 | 215 | 6.4 | 11.3 | 0.00 | 0.00 | 0.00 | 76 | 1020.2 |
| 20260830145011 | 21 | 190 | 3.2 | 8.0 | 0.00 | 0.00 | 0.00 | 75 | 1020.1 |
| 20260830144534 | 21 | 205 | 4.8 | 12.9 | 0.00 | 0.00 | 0.00 | 74 | 1020.2 |
| 20260830144012 | 21 | 219 | 6.4 | 12.9 | 0.00 | 0.00 | 0.00 | 72 | 1020.3 |
| 20260830143515 | 21 | 219 | 8.0 | 12.9 | 0.00 | 0.00 | 0.00 | 72 | 1020.4 |
| 20260830143037 | 21 | 207 | 4.8 | 14.5 | 0.00 | 0.00 | 0.00 | 72 | 1020.5 |
| 20260830142515 | 21 | 225 | 6.4 | 14.5 | 0.00 | 0.00 | 0.00 | 73 | 1020.4 |
| 20260830142017 | 21 | 219 | 8.0 | 14.5 | 0.00 | 0.00 | 0.00 | 73 | 1020.4 |
| 20260830141531 | 21 | 213 | 8.0 | 14.5 | 0.00 | 0.00 | 0.00 | 73 | 1020.5 |
| 20260830141015 | 21 | 210 | 9.7 | 14.5 | 0.00 | 0.00 | 0.00 | 72 | 1020.5 |
| 20260830140516 | 20 | 203 | 9.7 | 12.9 | 0.00 | 0.00 | 0.00 | 74 | 1020.5 |
| 20260830140038 | 20 | 224 | 4.8 | 11.3 | 0.00 | 0.00 | 0.00 | 76 | 1020.6 |
| 20260830135518 | 20 | 210 | 4.8 | 11.3 | 0.00 | 0.00 | 0.00 | 76 | 1020.5 |
| 20260830135015 | 20 | 170 | 4.8 | 12.9 | 0.00 | 0.00 | 0.00 | 75 | 1020.5 |
| 20260830134537 | 20 | 133 | 3.2 | 14.5 | 0.00 | 0.00 | 0.00 | 76 | 1020.4 |
| 20260830134015 | 20 | 221 | 6.4 | 14.5 | 0.00 | 0.00 | 0.00 | 73 | 1020.5 |
| 20260830133513 | 20 | 265 | 1.6 | 16.1 | 0.00 | 0.00 | 0.00 | 75 | 1020.6 |
| 20260830133035 | 20 | 200 | 9.7 | 19.3 | 0.00 | 0.00 | 0.00 | 74 | 1020.6 |
| 20260830132513 | 20 | 196 | 12.9 | 19.3 | 0.00 | 0.00 | 0.00 | 75 | 1020.6 |
| 20260830132013 | 20 | 186 | 11.3 | 17.7 | 0.00 | 0.00 | 0.00 | 76 | 1020.6 |
| 20260830131530 | 19 | 216 | 11.3 | 19.3 | 0.00 | 0.00 | 0.00 | 76 | 1020.7 |
| 20260830131019 | 18 | 196 | 11.3 | 19.3 | 0.00 | 0.00 | 0.00 | 78 | 1020.8 |
| 20260830130515 | 18 | 167 | 6.4 | 11.3 | 0.00 | 0.00 | 0.00 | 81 | 1020.8 |
| 20260830130051 | 17 | 217 | 4.8 | 9.7 | 0.00 | 0.00 | 0.00 | 82 | 1020.9 |
| 20260830125518 | 17 | 236 | 3.2 | 9.7 | 0.00 | 0.00 | 0.00 | 83 | 1020.9 |
| 20260830125014 | 17 | 249 | 3.2 | 6.4 | 0.00 | 0.00 | 0.00 | 84 | 1021.0 |
| 20260830124534 | 16 | 265 | 1.6 | 8.0 | 0.00 | 0.00 | 0.00 | 86 | 1021.1 |
| 20260830124018 | 16 | 137 | 3.2 | 8.0 | 0.00 | 0.00 | 0.00 | 86 | 1021.1 |
| 20260830123519 | 16 | 51 | 1.6 | 4.8 | 0.00 | 0.00 | 0.00 | 86 | 1021.1 |
| 20260830123035 | 16 | 165 | 1.6 | 4.8 | 0.00 | 0.00 | 0.00 | 86 | 1021.1 |
| 20260830122519 | 16 | 265 | 0.0 | 8.0 | 0.00 | 0.00 | 0.00 | 88 | 1021.3 |
| 20260830122014 | 16 | 205 | 1.6 | 8.0 | 0.00 | 0.00 | 0.00 | 88 | 1021.4 |
| 20260830121530 | 16 | 26 | 4.8 | 8.0 | 0.00 | 0.00 | 0.00 | 88 | 1021.3 |
| 20260830121006 | 16 | 57 | 3.2 | 8.0 | 0.00 | 0.00 | 0.00 | 90 | 1021.3 |
| 20260830120505 | 15 | 26 | 3.2 | 8.0 | 0.00 | 0.00 | 0.00 | 91 | 1021.4 |
| 20260830120009 | 15 | 9 | 4.8 | 8.0 | 0.00 | 0.00 | 0.00 | 92 | 1021.4 |
| 20260830115515 | 15 | 61 | 1.6 | 6.4 | 0.00 | 0.00 | 0.00 | 93 | 1021.4 |
| 20260830115015 | 14 | 85 | 3.2 | 8.0 | 0.00 | 0.00 | 0.00 | 93 | 1021.4 |
| 20260830114525 | 14 | 78 | 4.8 | 8.0 | 0.00 | 0.00 | 0.00 | 94 | 1021.4 |
| 20260830114011 | 14 | 39 | 4.8 | 8.0 | 0.00 | 0.00 | 0.00 | 94 | 1021.5 |
| 20260830113510 | 13 | 59 | 3.2 | 6.4 | 0.00 | 0.00 | 0.00 | 94 | 1021.4 |
| 20260830113020 | 13 | 46 | 3.2 | 6.4 | 0.00 | 0.00 | 0.00 | 94 | 1021.5 |
| 20260830112514 | 13 | 51 | 3.2 | 6.4 | 0.00 | 0.00 | 0.00 | 94 | 1021.6 |
| 20260830112015 | 13 | 39 | 3.2 | 6.4 | 0.00 | 0.00 | 0.00 | 94 | 1021.7 |
| 20260830111527 | 13 | 38 | 3.2 | 4.8 | 0.00 | 0.00 | 0.00 | 94 | 1021.7 |
| 20260830111012 | 13 | 67 | 1.6 | 4.8 | 0.00 | 0.00 | 0.00 | 94 | 1021.7 |
| 20260830110504 | 12 | 34 | 1.6 | 4.8 | 0.00 | 0.00 | 0.00 | 94 | 1021.7 |
| 20260830110008 | 12 | 51 | 1.6 | 4.8 | 0.00 | 0.00 | 0.00 | 94 | 1021.7 |
| 20260830105517 | 12 | 44 | 1.6 | 3.2 | 0.00 | 0.00 | 0.00 | 93 | 1021.7 |
| 20260830105008 | 12 | 51 | 1.6 | 4.8 | 0.00 | 0.00 | 0.00 | 93 | 1021.7 |
| 20260830104534 | 12 | 334 | 0.0 | 4.8 | 0.00 | 0.00 | 0.00 | 93 | 1021.7 |
| 20260830104008 | 12 | 314 | 1.6 | 4.8 | 0.00 | 0.00 | 0.00 | 93 | 1021.6 |
| 20260830103508 | 12 | 46 | 3.2 | 4.8 | 0.00 | 0.00 | 0.00 | 93 | 1021.5 |
| 20260830103017 | 12 | 34 | 0.0 | 6.4 | 0.00 | 0.00 | 0.00 | 93 | 1021.5 |
| 20260830102508 | 12 | 212 | 3.2 | 6.4 | 0.00 | 0.00 | 0.00 | 93 | 1021.5 |
| 20260830102014 | 12 | 221 | 3.2 | 6.4 | 0.00 | 0.00 | 0.00 | 93 | 1021.5 |
| 20260830101526 | 12 | 215 | 1.6 | 4.8 | 0.00 | 0.00 | 0.00 | 93 | 1021.5 |
| 20260830101017 | 12 | 205 | 3.2 | 4.8 | 0.00 | 0.00 | 0.00 | 93 | 1021.6 |
| 20260830100514 | 12 | 234 | 1.6 | 3.2 | 0.00 | 0.00 | 0.00 | 92 | 1021.6 |
| 20260830100006 | 12 | 265 | 1.6 | 3.2 | 0.00 | 0.00 | 0.00 | 92 | 1021.5 |
| 20260830095516 | 12 | 238 | 1.6 | 3.2 | 0.00 | 0.00 | 0.00 | 93 | 1021.5 |
| 20260830095004 | 12 | 238 | 0.0 | 4.8 | 0.00 | 0.00 | 0.00 | 93 | 1021.5 |
| 20260830094533 | 12 | 196 | 0.0 | 4.8 | 0.00 | 0.00 | 0.00 | 93 | 1021.6 |
| 20260830094013 | 13 | 221 | 1.6 | 4.8 | 0.00 | 0.00 | 0.00 | 93 | 1021.6 |
| 20260830093507 | 13 | 200 | 3.2 | 4.8 | 0.00 | 0.00 | 0.00 | 93 | 1021.7 |
| 20260830093016 | 12 | 193 | 3.2 | 6.4 | 0.00 | 0.00 | 0.00 | 93 | 1021.7 |
| 20260830092509 | 13 | 212 | 3.2 | 6.4 | 0.00 | 0.00 | 0.00 | 93 | 1021.8 |
| 20260830092009 | 12 | 212 | 3.2 | 8.0 | 0.00 | 0.00 | 0.00 | 93 | 1021.9 |
| 20260830091528 | 12 | 198 | 4.8 | 8.0 | 0.00 | 0.00 | 0.00 | 93 | 1021.8 |
| 20260830091017 | 12 | 198 | 4.8 | 6.4 | 0.00 | 0.00 | 0.00 | 92 | 1021.9 |
| 20260830090514 | 13 | 247 | 1.6 | 6.4 | 0.00 | 0.00 | 0.00 | 92 | 1021.8 |
| 20260830090037 | 13 | 232 | 3.2 | 6.4 | 0.00 | 0.00 | 0.00 | 92 | 1021.9 |
| 20260830085512 | 13 | 238 | 1.6 | 4.8 | 0.00 | 0.00 | 0.00 | 92 | 1021.8 |
| 20260830085017 | 13 | 282 | 0.0 | 3.2 | 0.00 | 0.00 | 0.00 | 92 | 1021.8 |
| 20260830084531 | 13 | 137 | 0.0 | 4.8 | 0.00 | 0.00 | 0.00 | 92 | 1021.7 |
| 20260830084014 | 13 | 247 | 1.6 | 6.4 | 0.00 | 0.00 | 0.00 | 92 | 1021.8 |
| 20260830083504 | 13 | 286 | 0.0 | 6.4 | 0.00 | 0.00 | 0.00 | 92 | 1021.9 |
| 20260830083011 | 13 | 221 | 1.6 | 6.4 | 0.00 | 0.00 | 0.00 | 92 | 1021.9 |
| 20260830082506 | 12 | 245 | 3.2 | 6.4 | 0.00 | 0.00 | 0.00 | 92 | 1021.9 |
| 20260830082012 | 13 | 265 | 0.0 | 6.4 | 0.00 | 0.00 | 0.00 | 92 | 1021.9 |
| 20260830081516 | 13 | 234 | 3.2 | 6.4 | 0.00 | 0.00 | 0.00 | 92 | 1022.0 |
| 20260830081012 | 13 | 198 | 1.6 | 4.8 | 0.00 | 0.00 | 0.00 | 92 | 1021.8 |
| 20260830080508 | 13 | 265 | 1.6 | 4.8 | 0.00 | 0.00 | 0.00 | 92 | 1021.9 |
| 20260830080024 | 13 | 221 | 1.6 | 4.8 | 0.00 | 0.00 | 0.00 | 92 | 1021.9 |
| 20260830075512 | 13 | 178 | 1.6 | 4.8 | 0.00 | 0.00 | 0.00 | 92 | 1022.0 |
| 20260830075015 | 13 | 200 | 1.6 | 4.8 | 0.00 | 0.00 | 0.00 | 92 | 1022.0 |
| 20260830074531 | 13 | 238 | 1.6 | 6.4 | 0.00 | 0.00 | 0.00 | 92 | 1022.0 |
| 20260830074014 | 13 | 242 | 3.2 | 6.4 | 0.00 | 0.00 | 0.00 | 92 | 1022.0 |
| 20260830073514 | 13 | 200 | 3.2 | 11.3 | 0.00 | 0.00 | 0.00 | 92 | 1022.0 |
| 20260830073030 | 13 | 234 | 4.8 | 11.3 | 0.00 | 0.00 | 0.00 | 93 | 1021.9 |
| 20260830072514 | 12 | 210 | 4.8 | 8.0 | 0.00 | 0.00 | 0.00 | 93 | 1021.9 |
| 20260830072006 | 12 | 212 | 3.2 | 8.0 | 0.00 | 0.00 | 0.00 | 92 | 1021.9 |
| 20260830071514 | 12 | 219 | 4.8 | 8.0 | 0.00 | 0.00 | 0.00 | 92 | 1021.8 |
| 20260830071013 | 12 | 201 | 4.8 | 8.0 | 0.00 | 0.00 | 0.00 | 92 | 1021.8 |
| 20260830070511 | 12 | 221 | 4.8 | 9.7 | 0.00 | 0.00 | 0.00 | 92 | 1021.8 |
| 20260830070021 | 12 | 245 | 4.8 | 9.7 | 0.00 | 0.00 | 0.00 | 93 | 1021.8 |
| 20260830065512 | 12 | 232 | 4.8 | 9.7 | 0.00 | 0.00 | 0.00 | 92 | 1021.8 |
| 20260830065012 | 12 | 221 | 6.4 | 9.7 | 0.00 | 0.00 | 0.00 | 92 | 1021.7 |
| 20260830064525 | 12 | 201 | 6.4 | 8.0 | 0.00 | 0.00 | 0.00 | 92 | 1021.7 |
| 20260830064015 | 12 | 190 | 1.6 | 4.8 | 0.00 | 0.00 | 0.00 | 92 | 1021.8 |
| 20260830063515 | 12 | 221 | 3.2 | 4.8 | 0.00 | 0.00 | 0.00 | 92 | 1021.9 |
| 20260830063030 | 12 | 212 | 1.6 | 3.2 | 0.00 | 0.00 | 0.00 | 92 | 1021.8 |
| 20260830062513 | 12 | 178 | 0.0 | 3.2 | 0.00 | 0.00 | 0.00 | 92 | 1021.8 |
| 20260830062015 | 12 | 247 | 0.0 | 1.6 | 0.00 | 0.00 | 0.00 | 92 | 1021.8 |
| 20260830061531 | 12 | 9 | 0.0 | 3.2 | 0.00 | 0.00 | 0.00 | 92 | 1021.8 |
| 20260830061017 | 12 | 205 | 0.0 | 3.2 | 0.00 | 0.00 | 0.00 | 92 | 1021.7 |
| 20260830060520 | 12 | 265 | 1.6 | 4.8 | 0.00 | 0.00 | 0.00 | 92 | 1021.8 |
| 20260830060020 | 12 | 247 | 1.6 | 4.8 | 0.00 | 0.00 | 0.00 | 92 | 1021.8 |
| 20260830055507 | 12 | 221 | 1.6 | 4.8 | 0.00 | 0.00 | 0.00 | 92 | 1021.8 |
| 20260830055010 | 12 | 247 | 1.6 | 4.8 | 0.00 | 0.00 | 0.00 | 92 | 1022.0 |
| 20260830054525 | 12 | 234 | 1.6 | 3.2 | 0.00 | 0.00 | 0.00 | 92 | 1022.0 |
| 20260830054011 | 12 | 247 | 0.0 | 3.2 | 0.00 | 0.00 | 0.00 | 92 | 1022.0 |
| 20260830053514 | 12 | 51 | 0.0 | 3.2 | 0.00 | 0.00 | 0.00 | 92 | 1022.0 |
| 20260830053034 | 12 | 265 | 0.0 | 3.2 | 0.00 | 0.00 | 0.00 | 92 | 1022.0 |
| 20260830052514 | 12 | 76 | 0.0 | 3.2 | 0.00 | 0.00 | 0.00 | 92 | 1022.0 |
| 20260830052021 | 12 | 9 | 0.0 | 3.2 | 0.00 | 0.00 | 0.00 | 92 | 1022.1 |
| 20260830051536 | 12 | 243 | 1.6 | 4.8 | 0.00 | 0.00 | 0.00 | 92 | 1022.1 |
| 20260830051021 | 12 | 238 | 1.6 | 4.8 | 0.00 | 0.00 | 0.00 | 92 | 1022.2 |
| 20260830050517 | 12 | 234 | 1.6 | 4.8 | 0.00 | 0.00 | 0.00 | 92 | 1022.2 |
| 20260830050039 | 12 | 279 | 1.6 | 4.8 | 0.00 | 0.00 | 0.00 | 92 | 1022.3 |
| 20260830045517 | 12 | 243 | 3.2 | 8.0 | 0.00 | 0.00 | 0.00 | 92 | 1022.2 |
| 20260830045017 | 12 | 210 | 3.2 | 8.0 | 0.00 | 0.00 | 0.00 | 92 | 1022.2 |
| 20260830044520 | 12 | 215 | 4.8 | 8.0 | 0.00 | 0.00 | 0.00 | 92 | 1022.2 |
| 20260830044014 | 12 | 208 | 1.6 | 3.2 | 0.00 | 0.00 | 0.00 | 92 | 1022.3 |
| 20260830043513 | 12 | 196 | 1.6 | 3.2 | 0.00 | 0.00 | 0.00 | 92 | 1022.2 |
| 20260830043029 | 12 | 212 | 0.0 | 3.2 | 0.00 | 0.00 | 0.00 | 92 | 1022.2 |
| 20260830042511 | 12 | 232 | 1.6 | 3.2 | 0.00 | 0.00 | 0.00 | 92 | 1022.2 |
| 20260830042017 | 12 | 221 | 0.0 | 3.2 | 0.00 | 0.00 | 0.00 | 91 | 1022.1 |
| 20260830041528 | 12 | 254 | 1.6 | 3.2 | 0.00 | 0.00 | 0.00 | 91 | 1022.0 |
| 20260830041019 | 12 | 51 | 0.0 | 3.2 | 0.00 | 0.00 | 0.00 | 91 | 1021.9 |
| 20260830040518 | 12 | 178 | 0.0 | 3.2 | 0.00 | 0.00 | 0.00 | 91 | 1021.8 |
| 20260830040034 | 12 | 247 | 0.0 | 6.4 | 0.00 | 0.00 | 0.00 | 91 | 1021.9 |
| 20260830035515 | 12 | 265 | 0.0 | 6.4 | 0.00 | 0.00 | 0.00 | 91 | 1021.8 |
| 20260830035015 | 12 | 265 | 3.2 | 6.4 | 0.00 | 0.00 | 0.00 | 91 | 1021.9 |
| 20260830034538 | 12 | 247 | 1.6 | 4.8 | 0.00 | 0.00 | 0.00 | 91 | 1021.8 |